Location: Castelbiague
(43.0361°N, 0.9246°E)
Time: 08:34:30
(UTC+00:00)

GEOS 3 Rocket - Pass Details

Date: 17 June 2021
Orbit: 779 x 840 km, 115.0° (Epoch: 26 July)

Event Time Altitude Azimuth Distance (km) Brightness Sun altitude
Exits shadow 22:11:19 21° 106° (ESE) 1,782 5.0 -19.2°
Maximum altitude 22:14:30 45° 45° (NE) 1,132 4.5 -19.5°
Drops below altitude 10° 22:19:33 10° 334° (NNW) 2,452 7.3 -19.8°
Sets 22:21:57 0° 328° (NNW) 3,383 8.4 -20.0°
